Location: �clusier
(49.9361°N, 2.7869°E)
Time: 01:43:38
(UTC+00:00)

Cosmos 1331 Rocket - Pass Details

Date: 27 October 2021
Orbit: 748 x 778 km, 74.0° (Epoch: 07 December)

Event Time Altitude Azimuth Distance (km) Brightness Sun altitude
Rises 04:23:26 0° 343° (NNW) 3,232 7.1 -20.9°
Reaches altitude 10° 04:26:40 10° 3° (N) 2,309 6.6 -20.4°
Maximum altitude 04:30:03 17° 44° (NE) 1,867 6.6 -19.9°
Drops below altitude 10° 04:33:27 10° 84° (E) 2,314 7.7 -19.3°
Sets 04:36:41 0° 105° (ESE) 3,243 8.6 -18.8°
